Location: Unspecified
(0.0000°N, 0.0000°E)
Time: 01:19:56
(UTC+00:00)

CSTB 1 - Pass Details

Date: 19 May 2026
Orbit: 607 x 696 km, 98.4° (Epoch: 10 June)

Event Time Altitude Azimuth Distance (km) Brightness Sun altitude
Rises 04:26:30 0° 49° (NE) 3,058 ? -21.1°
Reaches altitude 10° 04:30:03 10° 77° (ENE) 2,148 ? -20.3°
Maximum altitude 04:32:03 13° 103° (ESE) 1,974 ? -19.8°
Drops below altitude 10° 04:34:04 10° 128° (SE) 2,150 ? -19.3°
Sets 04:37:36 0° 156° (SSE) 3,063 ? -18.5°
